METEOSAT 6 AKM, 23118

Orbit data source: Space-Track

METEOSAT 6 AKM, 23118 is space debris in GEO originally from a launch on Sat, 20 Nov 1993 UTC launched from the French Guiana (FRGUI). Debris objects in space refer to the collection of defunct objects orbiting the Earth. Examples of debris include non-operational satellites, rocket bodies, and fragments generated from explosions, collisions, or faulty payload assembly.

Loading next visibility...
Identifier
23118, 1993-073E
Orbit
GEO
Country
Flag of ESAESA
Related business
Manufacturer
SEP
Mission
Spacecraft
Bus & Motor
MAGE, Unknown motor
Mass
364 kg wet, ~71 kg dry
Launch date (UTC)
1993-11-20 (32 years ago)
Launch vehicle
Unknown
Launch site
French Guiana (FRGUI)
Object type
Payload
Rocket body
Debris
Shape & HBR
Cyl + Cone, 0.6 m
Radar Cross Section
0.910 m², Medium (>0.1 m² and < 1m²)

Expand to show TLE details & history
Last TLE update: 3 days ago

TLE from 3 days ago
0 METEOSAT 6 AKM
1 23118U 93073E   25258.19398936 -.00000311  00000-0  00000-0 0  9993
2 23118  14.3319 349.1559 0066385 105.0960 282.0800  0.99993173 44449
Epoch: 2025-09-15T04:39Z
TLE epoch observation values (Epoch: 2025-09-15T04:39:20.68Z)
Latitude
6.32348°
Longitude
-49.37389°
Altitude
35,807.859 km
Speed
3.076 km/s
True Right ascension
00h 59m 27s
True Declination
6° 19' 02"
Sunlit
Object was in daylight at epoch
Visualization orbit readout
Latitude
Unknown
Longitude
Unknown
Altitude
Unknown
Speed
Unknown
Apparent Right ascension
Unknown
Apparent Declination
Unknown
Sunlit
N/A
Visualization observer readout
Local Sidereal Time
21:31:55
Azimuth
Unknown
Elevation
Unknown
Doppler factor
Unknown
Orbital elements
Apogee altitude
36,146.291 km
Perigee altitude
35,585.417 km
Semi-major axis
42,243.991 km
Eccentricity
0.00664
Inclination
14.3319°
RAAN
349.1559°
Arg. of periapsis
105.096°
True anomaly
281.33486°
Mean anomaly
282.08°
Eccentric anomaly
281.70755°
Mean motion
0.24997 °/min
Orbital period
1,440.15 mins
BSTAR
0
Loading maneuver chart data...
Computing Atmospheric mass density...
Loading historical data...
Loading historical data...
Loading historical data...
Loading historical data...
Loading historical data...
Loading historical data...
Loading historical data...

Documentation

Showing up to 5 results
|